FW0479 Weather Reports


Display with metric or nautical units.
time (UTC)temp
F
wind
direction
speed
MPH
gust
MPH
rain 1hr
in
rain 24hr
in
rain mn
in
humidity
%
barometer
mb
20180822031121 75 180 0.0 0.0 0.00 0.00 0.00 92 1016.4
20180822030121 75 270 0.0 0.0 0.00 0.00 0.00 92 1016.2
20180822024124 75 272 1.0 3.0 0.00 0.00 0.00 91 1016.4
20180822023121 75 252 1.0 4.0 0.00 0.00 0.00 91 1016.1
20180822022121 75 290 1.0 4.0 0.00 0.00 0.00 90 1016.0
20180822021124 76 319 0.0 2.0 0.00 0.00 0.00 89 1016.0
20180822020122 76 84 1.0 5.0 0.00 0.00 0.00 88 1016.1
20180822015122 77 277 2.0 6.0 0.00 0.00 0.00 88 1016.0
20180822014122 77 272 2.0 4.0 0.00 0.00 0.00 88 1015.9
20180822013125 78 242 1.0 4.0 0.00 0.00 0.00 90 1015.8
20180822012122 78 184 1.0 4.0 0.00 0.00 0.00 89 1015.5
20180822011122 79 234 1.0 4.0 0.00 0.00 0.00 87 1015.5
20180822010122 79 169 2.0 7.0 0.00 0.00 0.00 85 1015.4
20180822005122 80 158 0.0 0.0 0.00 0.00 0.00 85 1015.3
20180822004122 80 124 0.0 2.0 0.00 0.00 0.00 83 1015.1
20180822003122 80 150 1.0 3.0 0.00 0.00 0.00 82 1015.2
20180822002123 81 151 0.0 3.0 0.00 0.00 0.00 81 1015.1
20180822001123 82 186 0.0 2.0 0.00 0.00 0.00 79 1015.1
20180822000122 82 270 0.0 0.0 0.00 0.00 0.00 77 1015.0
20180821235122 83 128 0.0 3.0 0.00 0.00 0.00 77 1014.9
20180821234123 84 220 0.0 3.0 0.00 0.00 0.00 75 1015.0
20180821233123 85 124 0.0 3.0 0.00 0.00 0.00 74 1015.1
20180821232123 84 77 0.0 4.0 0.00 0.00 0.00 74 1015.1
20180821231123 86 283 2.0 5.0 0.00 0.00 0.00 70 1015.1
20180821230123 86 217 2.0 5.0 0.00 0.00 0.00 72 1015.2
20180821225127 86 230 1.0 3.0 0.00 0.00 0.00 72 1015.2
20180821224123 87 326 2.0 5.0 0.00 0.00 0.00 70 1015.1
20180821223123 87 45 2.0 7.0 0.00 0.00 0.00 70 1015.0
20180821222123 85 311 3.0 8.0 0.00 0.00 0.00 72 1015.0
20180821221123 86 176 2.0 5.0 0.00 0.00 0.00 70 1015.0
20180821220128 88 288 3.0 7.0 0.00 0.00 0.00 69 1014.9
20180821215124 87 277 3.0 8.0 0.00 0.00 0.00 70 1014.8
20180821214124 88 282 3.0 8.0 0.00 0.00 0.00 68 1014.7
20180821213127 88 332 4.0 12.0 0.00 0.00 0.00 66 1014.8
20180821212126 88 275 3.0 8.0 0.00 0.00 0.00 67 1014.8
20180821211123 87 284 3.0 7.0 0.00 0.00 0.00 68 1014.8
20180821210123 89 204 4.0 7.0 0.00 0.00 0.00 66 1014.9
20180821205123 89 274 3.0 9.0 0.00 0.00 0.00 67 1015.2
20180821204122 87 124 3.0 6.0 0.00 0.00 0.00 70 1015.2
20180821203122 87 248 3.0 6.0 0.00 0.00 0.00 69 1015.2
20180821202123 88 285 3.0 6.0 0.00 0.00 0.00 68 1015.4
20180821201123 87 280 3.0 6.0 0.00 0.00 0.00 74 1015.4
20180821200123 84 284 3.0 6.0 0.00 0.00 0.00 74 1015.5
20180821195126 86 280 3.0 7.0 0.00 0.00 0.00 72 1015.4
20180821194142 88 296 4.0 9.0 0.00 0.00 0.00 70 1015.5
20180821193122 88 253 3.0 8.0 0.00 0.00 0.00 71 1015.6
20180821192123 85 270 2.0 6.0 0.00 0.00 0.00 73 1016.0
20180821191122 84 293 2.0 5.0 0.00 0.00 0.00 76 1016.0
20180821190122 84 302 4.0 10.0 0.00 0.00 0.00 75 1016.1
20180821185125 85 275 3.0 6.0 0.00 0.00 0.00 75 1016.2
20180821184122 86 298 4.0 9.0 0.00 0.00 0.00 71 1016.4
20180821183123 85 267 5.0 9.0 0.00 0.00 0.00 75 1016.6
20180821182123 85 283 3.0 7.0 0.00 0.00 0.00 74 1016.8
20180821181123 85 85 3.0 5.0 0.00 0.00 0.00 75 1016.8
20180821180122 82 202 1.0 3.0 0.00 0.00 0.00 80 1016.9
20180821175122 82 130 2.0 4.0 0.00 0.00 0.00 79 1017.1
20180821174123 80 238 1.0 4.0 0.00 0.00 0.00 83 1017.3
20180821173123 80 228 2.0 6.0 0.00 0.00 0.00 84 1017.5
20180821172123 80 236 2.0 5.0 0.00 0.00 0.00 83 1017.7
20180821171124 80 209 2.0 4.0 0.00 0.00 0.00 84 1017.7
20180821170123 79 273 2.0 5.0 0.00 0.00 0.00 86 1017.9
20180821165123 79 274 4.0 7.0 0.00 0.00 0.00 85 1017.9
20180821164126 80 286 3.0 6.0 0.00 0.00 0.00 84 1018.0
20180821163123 80 226 1.0 4.0 0.00 0.00 0.00 87 1018.0
20180821162123 80 294 1.0 3.0 0.00 0.00 0.00 86 1018.1
20180821161124 80 210 2.0 4.0 0.00 0.00 0.00 84 1018.1
20180821160123 80 235 2.0 5.0 0.00 0.00 0.00 85 1018.0
20180821155123 80 287 1.0 3.0 0.00 0.01 0.00 85 1018.1
20180821154125 80 179 2.0 5.0 0.00 0.01 0.00 85 1018.2
20180821153123 79 253 2.0 4.0 0.00 0.01 0.00 85 1018.3
20180821152123 79 250 2.0 6.0 0.00 0.01 0.00 86 1018.4
20180821151123 79 267 2.0 4.0 0.00 0.01 0.00 87 1018.4
20180821150125 78 273 1.0 4.0 0.00 0.01 0.00 89 1018.4
20180821145123 78 205 2.0 5.0 0.00 0.01 0.00 89 1018.5
20180821144128 77 320 1.0 3.0 0.00 0.01 0.00 90 1018.6
20180821143123 77 305 2.0 4.0 0.00 0.01 0.00 90 1018.5
20180821142123 77 279 1.0 3.0 0.00 0.01 0.00 91 1018.6
20180821141124 77 298 3.0 6.0 0.00 0.01 0.00 91 1018.6
20180821140122 77 298 3.0 6.0 0.00 0.01 0.00 91 1018.6
20180821135123 77 288 2.0 5.0 0.00 0.01 0.00 91 1018.2
20180821134123 77 274 3.0 6.0 0.00 0.01 0.00 91 1018.2
20180821133123 77 300 3.0 6.0 0.00 0.01 0.00 90 1018.0
20180821132122 78 321 2.0 5.0 0.00 0.01 0.00 90 1018.0
20180821131122 78 285 1.0 3.0 0.00 0.01 0.00 90 1018.0
20180821130127 77 309 1.0 4.0 0.00 0.01 0.00 90 1017.8
20180821125123 77 274 1.0 8.0 0.00 0.01 0.00 92 1017.9
20180821124122 77 339 1.0 4.0 0.00 0.01 0.00 92 1018.1
20180821123122 77 312 2.0 6.0 0.00 0.01 0.00 93 1018.1
20180821122122 76 228 1.0 3.0 0.00 0.01 0.00 94 1018.0
20180821121122 76 307 2.0 5.0 0.00 0.01 0.00 95 1018.0
20180821120123 75 248 2.0 5.0 0.00 0.01 0.00 95 1018.0
20180821115123 75 315 0.0 4.0 0.00 0.01 0.00 96 1018.0
20180821114142 75 241 1.0 4.0 0.00 0.01 0.00 98 1018.3
20180821113122 75 296 1.0 4.0 0.00 0.01 0.00 99 1018.1
20180821112122 74 278 2.0 5.0 0.00 0.01 0.00 99 1018.0
20180821111126 74 297 0.0 3.0 0.00 0.01 0.00 99 1018.0
20180821110122 74 289 1.0 3.0 0.00 0.01 0.00 99 1018.0
20180821105122 74 324 0.0 3.0 0.00 0.01 0.00 99 1017.8
20180821104125 74 262 1.0 3.0 0.00 0.01 0.00 99 1017.5
20180821103122 74 239 0.0 2.0 0.00 0.01 0.00 99 1017.6
20180821102122 74 313 1.0 3.0 0.00 0.01 0.00 99 1017.5
20180821101122 73 275 1.0 3.0 0.00 0.01 0.00 99 1017.5
20180821100123 73 225 0.0 0.0 0.00 0.01 0.00 99 1017.7
20180821095123 73 203 0.0 0.0 0.00 0.01 0.00 99 1017.5
20180821094123 73 203 0.0 0.0 0.00 0.01 0.00 99 1017.3
20180821093123 73 203 0.0 0.0 0.00 0.01 0.00 99 1017.3
20180821092126 73 248 0.0 0.0 0.00 0.01 0.00 99 1017.5
20180821091123 73 203 0.0 0.0 0.00 0.01 0.00 99 1017.5
20180821090123 73 180 0.0 0.0 0.00 0.01 0.00 99 1017.3
20180821085122 74 315 0.0 0.0 0.00 0.01 0.00 99 1017.4
20180821084123 74 180 0.0 0.0 0.00 0.01 0.00 99 1017.4
20180821083123 74 203 0.0 0.0 0.00 0.01 0.00 99 1017.4
20180821082123 74 270 0.0 0.0 0.00 0.01 0.00 99 1017.2
20180821081123 74 225 0.0 0.0 0.00 0.01 0.00 99 1017.2
20180821080122 74 158 0.0 0.0 0.00 0.01 0.00 99 1017.2
20180821075125 74 248 0.0 0.0 0.00 0.01 0.00 99 1017.3
20180821074123 74 68 0.0 0.0 0.00 0.01 0.00 99 1017.5
20180821073123 74 180 0.0 0.0 0.00 0.01 0.00 99 1017.6
20180821072122 75 90 0.0 0.0 0.00 0.01 0.00 99 1017.6
20180821071123 75 203 0.0 0.0 0.00 0.01 0.00 99 1017.6
20180821070122 75 113 0.0 0.0 0.00 0.01 0.00 99 1017.5
20180821065123 75 68 0.0 0.0 0.00 0.01 0.00 99 1017.6
20180821064126 75 113 0.0 0.0 0.00 0.01 0.00 99 1017.8
20180821063122 75 113 0.0 0.0 0.00 0.01 0.00 99 1018.0
20180821062123 75 180 0.0 0.0 0.00 0.01 0.00 99 1018.0
20180821061122 75 113 0.0 0.0 0.00 0.01 0.00 99 1018.0
20180821060122 75 158 0.0 0.0 0.00 0.01 0.00 99 1018.1
20180821055146 75 180 0.0 0.0 0.00 0.06 0.00 99 1018.0
20180821054122 75 203 0.0 0.0 0.00 0.28 0.00 99 1018.1
20180821053123 75 203 0.0 0.0 0.00 0.28 0.00 99 1018.1
20180821052123 75 225 0.0 0.0 0.00 0.28 0.00 98 1018.4
20180821051122 76 270 0.0 0.0 0.00 0.28 0.00 98 1018.4
20180821050123 76 225 0.0 0.0 0.00 0.28 0.00 98 1018.5
20180821045122 76 113 0.0 0.0 0.00 0.28 0.00 98 1018.5
20180821044123 76 180 0.0 0.0 0.00 0.28 0.00 98 1018.5
20180821043144 76 158 0.0 1.0 0.00 0.28 0.00 99 1018.7
20180821042122 75 225 0.0 0.0 0.00 0.28 0.00 98 1018.8
20180821041123 76 113 0.0 0.0 0.00 0.28 0.00 98 1018.8
20180821040125 76 113 0.0 0.0 0.00 0.28 0.00 98 1018.8
20180821035122 76 113 0.0 0.0 0.00 0.28 0.28 98 1018.7
20180821034122 76 68 0.0 0.0 0.00 0.28 0.28 97 1018.7
20180821033125 76 203 0.0 0.0 0.00 0.28 0.28 97 1018.7
20180821032123 76 45 0.0 0.0 0.00 0.28 0.28 97 1018.9